Home   Weather   Gjøvik   Past weeks

Flag for Norway Past Weather in Gjøvik, Norway — Yesterday and Last 2 Weeks

Now
26 °F

Chilly.


Feels Like: 26 °F
Forecast: 29 / 33 °F
Wind: 1 mph from West

Location: Lillehammer-Saetherengen

Current Time: Dec 9, 2016 at 8:50:56 am

Latest Report: Dec 9, 2016 at 8:00 am


Visibility: N/A

Pressure: 29.71 "Hg

Humidity: 99%

Dew Point: 26 °F

Location of GjøvikLocation

Past Weather in Gjøvik — Graph

°F

Gjøvik Temperature Yesterday

Maximum temperature yesterday: 29 °F (at 4:00 pm)
Minimum temperature yesterday: 22 °F (at 3:00 am)
Average temperature yesterday: 26 °F

High & Low Weather Summary for the Past Weeks

 TemperatureHumidityPressure
High47 °F (Dec 5, 5:00 am)98% (Dec 9, 4:00 am)30.44 "Hg (Dec 9, 4:00 am)
Low14 °F (Dec 7, 4:00 am)49% (Nov 27, 1:00 pm)29.47 "Hg (Nov 26, 3:00 pm)
Average27 °F81%29.99 "Hg
* Reported Nov 24 7:00 am — Dec 9 7:00 am, Gjøvik, Weather by CustomWeather, © 2016

Note: Actual official high and low records may vary slightly from our data, if they occured in-between our weather recording intervals... More about our weather records

Advertising

Gjøvik Weather History for the Previous 24 Hours

Scroll right to see more
 ConditionsComfort  
Time TempWeatherWind HumidityBarometerVisibility
7:00 am
Fri, Dec 9
25 °FChilly.1 mph98%29.69 "HgN/A
6:00 am26 °FChilly.1 mph98%29.69 "HgN/A
5:00 am25 °FChilly.1 mph98%29.69 "HgN/A
4:00 am27 °FChilly.1 mph98%29.68 "HgN/A
2:00 am27 °FChilly.1 mph97%29.70 "HgN/A
1:00 am27 °FChilly.1 mph97%29.73 "HgN/A
11:00 pm
Thu, Dec 8
27 °FChilly.1 mph97%29.75 "HgN/A
10:00 pm29 °FChilly.1 mph96%29.74 "HgN/A
8:00 pm27 °FChilly.1 mph96%29.74 "HgN/A
7:00 pm28 °FChilly.2 mph96%29.75 "HgN/A
6:00 pm28 °FChilly.1 mph96%29.73 "HgN/A
5:00 pm29 °FChilly.1 mph96%29.72 "HgN/A
4:00 pm29 °FChilly.2 mph96%29.70 "HgN/A
3:00 pm28 °FChilly.1 mph94%29.68 "HgN/A
2:00 pm28 °FChilly.1 mph93%29.67 "HgN/A
1:00 pm29 °FChilly.1 mph95%29.64 "HgN/A
12:00 pm28 °FChilly.3 mph95%29.61 "HgN/A
11:00 am26 °FChilly.2 mph96%29.56 "HgN/A
10:00 am24 °FCold.2 mph96%29.53 "HgN/A
9:00 am25 °FCold.1 mph95%29.50 "HgN/A
8:00 am25 °FChilly.No wind95%29.50 "HgN/A
Weather by CustomWeather, © 2016

See weather overviewHow to use our weather pages